KJ6HT Weather Reports


Display with metric or nautical units.
time (UTC)temp
F
wind
direction
speed
MPH
gust
MPH
rain 1hr
in
rain 24hr
in
rain mn
in
humidity
%
barometer
mb
20260831214532 90 236 6.0 14.0 0.00 0.00 0.00 36 1010.2
20260831213131 91 252 6.0 14.0 0.00 0.00 0.00 38 1010.5
20260831211612 90 298 6.0 15.0 0.00 0.00 0.00 41 1010.5
20260831210025 90 304 4.0 11.0 0.00 0.00 0.00 41 1010.8
20260831204614 91 295 5.0 12.0 0.00 0.00 0.00 41 1010.9
20260831203106 90 290 4.0 10.0 0.00 0.00 0.00 43 1010.9
20260831201521 90 307 6.0 12.0 0.00 0.00 0.00 40 1010.9
20260831200104 90 309 4.0 12.0 0.00 0.00 0.00 41 1011.0
20260831194525 89 336 2.0 7.0 0.00 0.00 0.00 46 1011.0
20260831193101 88 298 4.0 9.0 0.00 0.00 0.00 47 1011.2
20260831191523 87 152 5.0 7.0 0.00 0.00 0.00 51 1011.4
20260831190128 86 312 3.0 7.0 0.00 0.00 0.00 52 1011.6
20260831184528 86 303 2.0 10.0 0.00 0.00 0.00 54 1011.8
20260831183113 84 322 1.0 7.0 0.00 0.00 0.00 58 1011.9
20260831181533 83 290 2.0 11.0 0.00 0.00 0.00 61 1011.9
20260831180004 82 281 3.0 9.0 0.00 0.00 0.00 62 1011.9
20260831174619 81 278 2.0 5.0 0.00 0.00 0.00 65 1012.0
20260831173020 81 30 0.0 5.0 0.00 0.00 0.00 67 1011.9
20260831171604 79 316 4.0 8.0 0.00 0.00 0.00 69 1012.0
20260831170032 78 290 1.0 7.0 0.00 0.00 0.00 72 1011.8
20260831164614 79 302 4.0 7.0 0.00 0.00 0.00 69 1011.7
20260831163107 78 266 2.0 5.0 0.00 0.00 0.00 71 1011.7
20260831161602 78 131 0.0 3.0 0.00 0.00 0.00 72 1011.7
20260831160016 75 302 0.0 4.0 0.00 0.00 0.00 76 1011.7
20260831154615 75 163 1.0 3.0 0.00 0.00 0.00 78 1011.7
20260831153115 73 287 1.0 5.0 0.00 0.00 0.00 81 1011.8
20260831151525 73 309 0.0 4.0 0.00 0.00 0.00 82 1011.8
20260831150130 72 308 1.0 4.0 0.00 0.00 0.00 83 1011.7
20260831144557 72 25 0.0 0.0 0.00 0.00 0.00 85 1011.6
20260831143010 71 278 0.0 0.0 0.00 0.00 0.00 86 1011.5
20260831141612 70 278 0.0 0.0 0.00 0.00 0.00 90 1011.3
20260831140012 68 278 0.0 0.0 0.00 0.00 0.00 92 1011.1
20260831134614 67 278 0.0 0.0 0.00 0.00 0.00 92 1010.9
20260831133015 67 278 0.0 0.0 0.00 0.00 0.00 92 1010.8
20260831131506 67 278 0.0 0.0 0.00 0.00 0.00 91 1010.7
20260831124514 67 278 0.0 0.0 0.00 0.00 0.00 91 1010.4
20260831123113 68 278 0.0 0.0 0.00 0.00 0.00 90 1010.4
20260831121626 68 278 0.0 0.0 0.00 0.00 0.00 90 1010.4
20260831120028 68 278 0.0 0.0 0.00 0.00 0.00 88 1010.4
20260831114616 69 278 0.0 0.0 0.00 0.00 0.00 88 1010.5
20260831113041 69 278 0.0 2.0 0.00 0.00 0.00 89 1010.5
20260831111529 69 74 0.0 0.0 0.00 0.00 0.00 87 1010.6
20260831110054 70 73 0.0 0.0 0.00 0.00 0.00 85 1010.5
20260831104529 71 73 0.0 0.0 0.00 0.00 0.00 82 1010.6
20260831103129 70 65 1.0 2.0 0.00 0.00 0.00 88 1010.5
20260831101547 69 305 0.0 0.0 0.00 0.00 0.00 87 1010.5
20260831100019 70 304 0.0 0.0 0.00 0.00 0.00 86 1010.5
20260831094611 70 305 2.0 4.0 0.00 0.00 0.00 85 1010.3
20260831093104 71 301 2.0 4.0 0.00 0.00 0.00 84 1010.4
20260831091519 72 5 0.0 2.0 0.00 0.00 0.00 81 1010.4
20260831090058 71 255 0.0 0.0 0.00 0.00 0.00 83 1010.3
20260831084549 71 255 0.0 2.0 0.00 0.00 0.00 82 1010.3
20260831083115 71 302 0.0 2.0 0.00 0.00 0.00 82 1010.5
20260831081539 72 270 0.0 1.0 0.00 0.00 0.00 80 1010.5
20260831080040 72 271 0.0 2.0 0.00 0.00 0.00 80 1010.7
20260831074628 73 333 0.0 1.0 0.00 0.00 0.00 77 1010.7
20260831073036 74 47 0.0 1.0 0.00 0.00 0.00 77 1010.6
20260831071621 73 63 0.0 0.0 0.00 0.00 0.00 77 1010.6
20260831070052 74 62 0.0 1.0 0.00 0.00 0.00 75 1010.4
20260831064514 75 83 0.0 1.0 0.00 0.00 0.00 74 1010.5
20260831063110 73 264 0.0 3.0 0.00 0.00 0.00 78 1010.3
20260831061514 74 280 1.0 2.0 0.00 0.00 0.00 75 1010.3
20260831060110 74 280 1.0 4.0 0.00 0.00 0.00 76 1010.3
20260831054508 74 296 2.0 6.0 0.00 0.00 0.00 75 1010.1
20260831053119 74 303 2.0 5.0 0.00 0.00 0.00 74 1010.2
20260831051541 76 123 0.0 2.0 0.00 0.00 0.00 70 1010.3
20260831050115 75 294 0.0 2.0 0.00 0.00 0.00 73 1010.2
20260831044531 76 345 0.0 1.0 0.00 0.00 0.00 70 1010.2
20260831043129 76 248 0.0 7.0 0.00 0.00 0.00 69 1009.9
20260831041549 76 170 2.0 7.0 0.00 0.00 0.00 69 1009.6
20260831040023 77 296 4.0 10.0 0.00 0.00 0.00 69 1009.4
20260831034613 78 245 2.0 6.0 0.00 0.00 0.00 68 1009.1
20260831033057 78 288 1.0 7.0 0.00 0.00 0.00 66 1008.8
20260831031501 79 314 2.0 7.0 0.00 0.00 0.00 65 1008.5
20260831030107 80 156 1.0 8.0 0.00 0.00 0.00 65 1008.1
20260831024536 80 280 3.0 10.0 0.00 0.00 0.00 64 1008.0
20260831023003 81 302 6.0 14.0 0.00 0.00 0.00 61 1007.9
20260831021551 83 261 5.0 10.0 0.00 0.00 0.00 58 1007.7
20260831020014 84 233 4.0 14.0 0.00 0.00 0.00 55 1007.6
20260831014623 85 321 4.0 9.0 0.00 0.00 0.00 53 1007.7
20260831013008 86 281 4.0 12.0 0.00 0.00 0.00 51 1007.7
20260831011603 87 340 5.0 12.0 0.00 0.00 0.00 50 1007.6
20260831010058 89 276 5.0 12.0 0.00 0.00 0.00 47 1007.5
20260831004515 90 280 5.0 11.0 0.00 0.00 0.00 46 1007.7
20260831003118 90 256 5.0 15.0 0.00 0.00 0.00 46 1007.5
20260831001531 91 277 5.0 14.0 0.00 0.00 0.00 45 1007.5
20260831000016 91 250 6.0 14.0 0.00 0.00 0.00 46 1007.4
20260830234613 91 303 6.0 16.0 0.00 0.00 0.00 47 1007.5
20260830233021 92 229 8.0 18.0 0.00 0.00 0.00 45 1007.4
20260830231614 92 238 4.0 17.0 0.00 0.00 0.00 46 1007.3
20260830230021 92 285 5.0 13.0 0.00 0.00 0.00 46 1007.5
20260830224614 92 280 5.0 12.0 0.00 0.00 0.00 47 1007.7
20260830223051 93 303 7.0 16.0 0.00 0.00 0.00 48 1007.8
20260830221518 93 118 7.0 18.0 0.00 0.00 0.00 48 1008.0
20260830220055 94 249 7.0 17.0 0.00 0.00 0.00 48 1008.1